Change the Weather History Date:

Thursday, February 20, 2014

  Actual Average Record
Temperature  
Mean Temperature 57 °F 41 °F  
Max Temperature 72 °F 51 °F 74 °F (1986)
Min Temperature 42 °F 30 °F -17 °F (2015)
Degree Days  
Heating Degree Days 8 24  
Month to date heating degree days 564 527  
Since 1 July heating degree days 3295 3090  
Cooling Degree Days 0 0  
Month to date cooling degree days 0 0  
Year to date cooling degree days 0 0  
Growing Degree Days 7 (Base 50)    
Moisture  
Dew Point 47 °F    
Average Humidity 60    
Maximum Humidity 77    
Minimum Humidity 42    
Precipitation  
Precipitation 0.00 in 0.13 in 0.61 in (1967)
Month to date precipitation 3.23 2.61  
Year to date precipitation 5.51 6.15  
Sea Level Pressure  
Sea Level Pressure 29.86 in    
Wind  
Wind Speed 10 mph (South)    
Max Wind Speed 26 mph    
Max Gust Speed 43 mph    
Visibility 10 miles    
Events      
T = Trace of Precipitation, MM = Missing Value Source: NWS Daily Summary

Daily Weather History Graph

Daily Weather History Graph

Search for Another Location

Airport or City:

Trip Planner

Search our weather history database for the weather conditions in past years. The results will help you decide how hot, cold, wet, or windy it might be!

Date:

Astronomy

Feb. 20, 2014 Rise Set
Actual Time 7:19 AM EST 6:21 PM EST
Civil Twilight 6:52 AM EST 6:47 PM EST
Nautical Twilight 6:22 AM EST 7:18 PM EST
Astronomical Twilight 5:52 AM EST 7:48 PM EST
Moon No Moon Rise 10:09 AM EST (2/20)
Length of Visible Light 11h 55m
Length of Day
11h 02m
Waning Gibbous, 71% of the Moon is Illuminated
Feb 20
Waning Gibbous
Feb 22
Last Quarter
Mar 1
New
Mar 8
First Quarter
Mar 16
Full

Hourly Weather History & Observations

Time (EST) Temp. Dew Point Humidity Pressure Visibility Wind Dir Wind Speed Gust Speed Precip Events Conditions
12:53 AM 48.9 °F 28.9 °F 46% 30.01 in 10.0 mi ESE 3.5 mph - N/A   Clear
1:53 AM 45.0 °F 30.9 °F 58% 30.00 in 10.0 mi Calm Calm - N/A   Clear
2:53 AM 44.1 °F 32.0 °F 63% 29.99 in 10.0 mi Calm Calm - N/A   Clear
3:53 AM 43.0 °F 33.1 °F 68% 29.97 in 10.0 mi Calm Calm - N/A   Scattered Clouds
4:53 AM 44.1 °F 36.0 °F 73% 29.94 in 10.0 mi Calm Calm - N/A   Mostly Cloudy
5:53 AM 46.9 °F 36.0 °F 66% 29.93 in 10.0 mi Calm Calm - N/A   Partly Cloudy
6:53 AM 50.0 °F 39.9 °F 68% 29.94 in 10.0 mi SSE 3.5 mph - N/A   Clear
7:53 AM 54.0 °F 46.0 °F 75% 29.94 in 10.0 mi SSE 4.6 mph - N/A   Partly Cloudy
8:53 AM 60.1 °F 50.0 °F 69% 29.95 in 10.0 mi South 9.2 mph - N/A   Overcast
9:53 AM 63.0 °F 51.1 °F 65% 29.94 in 10.0 mi South 8.1 mph - N/A   Overcast
10:53 AM 66.0 °F 53.1 °F 63% 29.92 in 10.0 mi South 12.7 mph 23.0 mph N/A   Overcast
11:53 AM 66.0 °F 53.1 °F 63% 29.91 in 10.0 mi SSW 11.5 mph 23.0 mph N/A   Overcast
12:53 PM 69.1 °F 51.1 °F 53% 29.88 in 10.0 mi SSW 19.6 mph 36.8 mph N/A   Overcast
1:53 PM 69.1 °F 51.1 °F 53% 29.86 in 10.0 mi SSW 19.6 mph 31.1 mph N/A   Overcast
2:53 PM 71.1 °F 52.0 °F 51% 29.83 in 10.0 mi SSW 18.4 mph 28.8 mph N/A   Overcast
3:53 PM 71.1 °F 52.0 °F 51% 29.81 in 10.0 mi South 17.3 mph 27.6 mph N/A   Scattered Clouds
4:53 PM 70.0 °F 54.0 °F 57% 29.81 in 10.0 mi SSW 12.7 mph 23.0 mph N/A   Overcast
5:53 PM 70.0 °F 54.0 °F 57% 29.79 in 10.0 mi SW 12.7 mph 24.2 mph N/A   Overcast
6:53 PM 69.1 °F 53.1 °F 57% 29.78 in 10.0 mi SSW 17.3 mph 24.2 mph N/A   Partly Cloudy
7:53 PM 68.0 °F 53.1 °F 59% 29.77 in 10.0 mi SSW 11.5 mph - N/A   Partly Cloudy
8:53 PM 68.0 °F 53.1 °F 59% 29.73 in 10.0 mi South 11.5 mph 21.9 mph N/A   Clear
9:53 PM 66.0 °F 54.0 °F 65% 29.70 in 10.0 mi South 18.4 mph 25.3 mph N/A   Clear
10:53 PM 66.0 °F 54.0 °F 65% 29.67 in 10.0 mi South 15.0 mph 24.2 mph N/A   Partly Cloudy
11:53 PM 66.0 °F 54.0 °F 65% 29.66 in 10.0 mi South 15.0 mph 26.5 mph N/A   Overcast